Weather in Rogovskaya

Russia / Krasnodar Krai     45°43′46″N   38°44′17″E
temp.,
°C
wind,
m/s
gust,
m/s
humid.,
%
clouds,
%
prec.,
mm/h
press.,
hPa
HPBL,
m
19 april, mon
mon1900:00+10ese1196100 0.0 101629
03:00+10nw1196100 0.1 101511
06:00+10n2299100 0.1 101472
09:00+11ene2298100 0.9 1014110
12:00+11wsw1297100 0.6 1014189
15:00+12wsw2395100 0.7 1014341
18:00+12wsw1196100 0.1 101470
21:00+10ssw009796 0.1 101310
20 april, tue
tue2000:00+10e2297100 0.1 101228
03:00+10e2399100 4.6 1009108
06:00+11ene4899100 1.6 1006228
09:00+12ene3799100 6.4 1005270
12:00+13sw3898100 2.8 1005441
15:00+18sw915640 2.8 10051523
18:00+13sw10167517 0.0 10071065
21:00+10wsw7128745 0.1 1011806
21 april, wed
wed2100:00+10sw7118541 0.0 1014678
03:00+8wsw4129311 0.0 1015350
06:00+8sw4109741 0.0 1016316
09:00+12sw577667 0.0 1017937
12:00+13sw577277 0.5 1018986
15:00+14wsw4667100 0.7 10181120
18:00+14wsw57722 0.1 1018491
21:00+9wsw22860 0.1 102025
22 april, thu
thu2200:00+8sw359317 0.0 102189
03:00+7sw34933 0.0 102159
06:00+7sw23953 0.0 102253
09:00+12sw337787 0.0 1023534
12:00+16wsw2261100 0.0 10231310
15:00+17wnw2256100 0.4 10221362
18:00+14n3478100 0.4 1022254
21:00+10nnw33793 0.4 102331
23 april, fri
fri2300:00+9n22774 0.0 102311
03:00+8nw11793 0.0 102410
06:00+8nw11812 0.0 102410
09:00+13ssw11662 0.0 1024397
12:00+17sw23570 0.0 10241366
15:00+19sw234513 0.0 10222034
18:00+16nnw346816 0.0 1022168
21:00+11n2271100 0.0 102224